User: anonymous
Location: Unspecified
(0.0000°N, 0.0000°E)
Time: 04:13:52
(UTC+00:00)
Language:

X-37B - Orbit

View from above orbital plane
View from above orbital plane
View from above satellite
View from above satellite

Ground track
Ground track

The orbit data is extracted from the following two-line orbital elements,

1 39025U 12071A   14203.32946671 0.00000000  00000-0  00000-0 0    01
2 39025  43.5064 276.6562 0020443 324.2138  35.7857 15.72754144    08
Epoch (UTC): 22 July 2014 07:54:25
Eccentricity: 0.0020443
inclination: 43.5064°
perigee height: 337 km
apogee height: 365 km
right ascension of ascending node: 276.6562°
argument of perigee: 324.2138°
revolutions per day: 15.72754144
mean anomaly at epoch: 35.7857°
orbit number at epoch: 0

The dashed part of the orbit path shows where the satellite is in the earth's shadow,  

DLR